Location: Bonnesvalyn
(49.1218°N, 3.3177°E)
Time: 05:49:13
(UTC+00:00)

Radarsat Rocket - Pass Details

Date: 09 February 2023
Orbit: 933 x 1491 km, 100.6° (Epoch: 29 March)

Event Time Altitude Azimuth Distance (km) Brightness Sun altitude
Rises 17:35:14 0° 161° (SSE) 3,688 7.0 -6.9°
Reaches altitude 10° 17:37:34 10° 162° (SSE) 2,791 6.4 -7.2°
Maximum altitude 17:43:51 87° 253° (WSW) 1,107 4.4 -8.2°
Drops below altitude 10° 17:51:02 10° 342° (NNW) 3,168 6.8 -9.4°
Sets 17:53:50 0° 343° (NNW) 4,218 7.4 -9.8°
